STARLINK-11521, 62597

Orbit data source: Space-Track

STARLINK-11521, 62597 is a payload satellite owned by SpaceX/Seattle (US) in LEO that was launched on Mon, 13 Jan 2025 UTC via an FALCON 9 launch vehicle from the Air Force Eastern Test Range (AFETR). Payload-class satellites include a variety of spacecraft equipped with specific instruments for various scientific and technological missions. These include communications satellites like Starlink; space stations such as the ISS; scientific satellites like the Hubble; Earth observation satellites from companies like Planet Labs, Umbra, and HawkEye 360; GPS; miniature CubeSats for education and research; and military/defense satellites.

Loading next visibility...
Identifier
62597, 2025-008L
Orbit
LEO
Country
Flag of USUS
Related business
Manufacturer
SpaceX/Seattle
Mission
Operational Commercial Communications
Bus & Motor
STARLINK V2MD, Unknown motor
Mass
960 kg wet, ~910 kg dry
Launch date (UTC)
2025-01-13 (1 year ago)
Launch vehicle
FALCON 9
Launch site
Air Force Eastern Test Range (AFETR)
Object type
Payload
Rocket body
Debris
Shape & HBR
Box + 2 Pan, 18.1 m
Radar Cross Section
36.964 m², Large (>1 m²)

Expand to show TLE details & history
Last TLE update: 22 hours ago

TLE from 22 hours ago
0 STARLINK-11521
1 62597U 25008L   26036.94621955  .00314940  00000-0  23613-2 0  9990
2 62597  42.9989 317.3367 0001164 226.0216 134.0555 15.70887934 62297
Epoch: 2026-02-05T22:42Z
TLE epoch observation values (Epoch: 2026-02-05T22:42:33.369Z)
Latitude
-0.00005°
Longitude
-159.39355°
Altitude
356.674 km
Speed
7.697 km/s
True Right ascension
21h 09m 20s
True Declination
0° 00' 00"
Sunlit
Object was in daylight at epoch
Visualization orbit readout
Latitude
Unknown
Longitude
Unknown
Altitude
Unknown
Speed
Unknown
Apparent Right ascension
Unknown
Apparent Declination
Unknown
Sunlit
N/A
Visualization observer readout
Local Sidereal Time
23:12:59
Azimuth
Unknown
Elevation
Unknown
Doppler factor
Unknown
Orbital elements
Apogee altitude
359.124 km
Perigee altitude
357.556 km
Semi-major axis
6,736.477 km
Eccentricity
0.00012
Inclination
42.9989°
RAAN
317.3367°
Arg. of periapsis
226.0216°
True anomaly
134.06508°
Mean anomaly
134.0555°
Eccentric anomaly
134.06029°
Mean motion
3.92549 °/min
Orbital period
91.71 mins
BSTAR
0.0023613
Loading maneuver chart data...
Computing Atmospheric mass density...
Loading historical data...
Loading historical data...
Loading historical data...
Loading historical data...
Loading historical data...
Loading historical data...
Loading historical data...

Documentation

Showing up to 5 results
|